Regional Weather Roundup
Issued by NWS Charleston, SC

Current Version | Previous Version | Graphics & Text | Print | Product List | Glossary On
Versions: 1 2 3 4 5 6 7 8 9 10 11 12 13 14 15 16 17 18 19 20 21 22 23 24 25 26 27 28 29 30 31 32 33 34 35 36 37 38 39 40 41 42 43 44 45 46 47 48 49 50
000 ASUS42 KCHS 050312 RWRCHS REGIONAL WEATHER ROUNDUP NATIONAL WEATHER SERVICE CHARLESTON SC 1100 PM EDT TUE AUG 04 2015 NOTE: "FAIR" INDICATES FEW OR NO CLOUDS BELOW 12,000 FEET WITH NO SIGNIFICANT WEATHER AND/OR OBSTRUCTIONS TO VISIBILITY. NOT ALL STATIONS ARE QUALITY CONTROLLED BY THE NATIONAL WEATHER SERVICE. USE DATA WITH CAUTION...ESPECIALLY DEWPOINT OBSERVATIONS. SCZ027-030-031-034>040-042>050-050400- ...SOUTHEAST SOUTH CAROLINA... CITY SKY/WX TMP DP RH WIND PRES REMARKS N CHARLESTON PTCLDY 79 77 94 SW9 29.99R WATERFRONT PRK N/A 82 80 94 SW7 29.96R HX 94 MOUNT PLEASANT FAIR 81 79 94 S7 29.99S JOHNS ISLAND FAIR 82 79 89 SW8 30.00R HX 93 PINOPOLIS NOT AVBL MONCKS CORNER FAIR 81 75 83 CALM 29.98S SUMMERVILLE FAIR 79 79 100 S3 30.00R BEAUFORT MCAS PTCLDY 82 77 84 SW9 30.00R HX 90 BEAUFORT ARPT FAIR 82 79 89 SW9 30.00R HX 93 HILTON HEAD IS PTCLDY 82 77 83 SW8 30.02R HX 91 WALTERBORO CLEAR 82 77 83 S6 30.00R HX 91 ALLENDALE FAIR 82 73 74 CALM 29.99R ...SOUTHERN MIDLANDS AND PEE DEE... CITY SKY/WX TMP DP RH WIND PRES REMARKS GEORGETOWN NOT AVBL KINGSTREE NOT AVBL ORANGEBURG CLEAR 82 74 76 S5 29.99R BARNWELL FAIR 84 73 70 SW5 29.99R HX 91 AIKEN FAIR 81 63 54 S5 30.03R MANNING RAIN 81 77 89 S5 29.98R COLUMBIA PTCLDY 87 70 56 SW3 29.96R HX 92 SUMTER CLEAR 87 71 58 SW10 29.95R HX 92 FLORENCE CLEAR 84 75 74 S6 29.96R HX 92 MYRTLE BEACH CLEAR 82 75 78 SW5 30.00R N MYRTLE BEACH CLEAR 83 78 85 SW12 29.98R HX 93 $$ GAZ063-065-086>088-099>101-113>116-118-119-134>141-150-050400- ...SOUTHEAST GEORGIA... CITY SKY/WX TMP DP RH WIND PRES REMARKS SAVANNAH ARPT PTCLDY 80 71 74 SW9 30.02R HUNTER AAF PTCLDY 80 74 84 SW6 30.00R FORT STEWART CLEAR 81 68 65 SW6 30.00S STATESBORO CLEAR 81 74 81 SW7 30.01R SYLVANIA CLEAR 83 75 77 SW6 30.02R HX 90 CLAXTON NOT AVBL ...CSRA...CENTRAL AND FAR SOUTHEAST GEORGIA... CITY SKY/WX TMP DP RH WIND PRES REMARKS THOMSON MOCLDY 84 74 70 SW5 30.05R HX 91 AUGUSTA-BUSH CLEAR 85 68 56 SW10 29.98R AUGUSTA-DANIEL CLEAR 85 67 54 SW6 30.00R SWAINSBORO FAIR 82 73 74 CALM 30.03R VIDALIA CLEAR 79 72 78 SW6 30.03R EASTMAN FAIR 78 73 84 CALM 30.05R HAZLEHURST FAIR 78 74 87 S5 30.03R ALMA PTCLDY 76 73 91 SW3 30.04R WAYCROSS MOCLDY 78 76 92 W6 30.05R JESUP FAIR 81 73 78 W5 30.04R BAXLEY FAIR 79 73 83 SW5 30.04R BRUNSWICK MOCLDY 77 72 83 W6 30.05R SAINT SIMONS MOCLDY 77 73 87 SW8 30.04R $$ SCZ027-028-034-036>038-045-046-048>050-GAZ119-141-050400- ...LAKE AND SUPPLEMENTAL COASTAL OBSERVATIONS... STATION/POSITION TIME TEMP WIND PRES WAVE SWELL AIR SEA DIR/SP/G HT/PER HT/PER/DIR (UTC) (F) (DEG/KT/KT) (MB) (FT/S) (FT/S/D) UPR LAKE MARION NOT AVBL WINYAH BAY 0145 81 220/ 7 1014.0 LAKE MURRAY 0200 90 190/ 5/ 7 1013.5R ACE BASIN NERRS NOT AVBL FORT PULASKI 0200 83 85 240/ 6/ 8 1016.3R SAPELO ISLAND 0200 80 240/ 6 1016.0S $$ ANZ835-935-AMZ111-154-330-350-352-354-370-450-454-472-050400- ...C-MAN AND BUOY OBSERVATIONS... STATION/POSITION TIME TEMP WIND PRES WAVE SWELL AIR SEA DIR/SP/G HT/PER HT/PER/DIR (UTC) (F) (DEG/KT/KT) (MB) (FT/S) (FT/S/D) BUOY 41004 0250 82 83 210/ 16/ 17 1015.2R 4/ 7 2/ 7 BUOY 41008 0250 82 83 250/ 10/ 12 1016.9R 3/ 5 2/130/ 5 FOLLY BEACH CMAN 0200 82 210/ 19/ 20 1015.5R CAPERS NEARSHORE 0208 83 210/ 16/ 19 1015.4R FRIPP NEARSHORE 0200 84 200/ 16/ 17 1015.2R STATION/POSITION TIME TEMP WIND PRES WAVE SWELL AIR SEA DIR/SP/G HT/PER HT/PER/DIR (UTC) (F) (DEG/KT/KT) (MB) (FT/S) (FT/S/D) 5E ST. MARYS GA 0221 82 N/A 2/11 FRYING PAN BUOY 0250 83 81 230/ 17/ 21 1015.3R 6/ 8 3/180/ 8 BUOY 41025 0250 79 83 170/ 25/ 29 1014.8F 6/ 7 2/210/ 8 CAPE LOOKOUT NC 0200 81 210/ 16/ 19 1014.0F BUOY 41002 0250 82 81 220/ 14/ 16 1018.9F 6/ 7 5/240/ 7 BUOY 41010 0220 84 84 180/ 10/ 12 1018.8R ST AUGUSTINE FL 0300 78 77 220/ 4/ 6 1018.9R $$

USA.gov is the U.S. government's official web portal to all federal, state and local government web resources and services.